Change the Weather History Date:

Tuesday, January 15, 2013

  Actual Average Record
Temperature  
Mean Temperature 45 °F -  
Max Temperature 51 °F 45 °F 68 °F (2007)
Min Temperature 39 °F 29 °F 11 °F (1969)
Degree Days  
Heating Degree Days 20    
Moisture  
Dew Point 42 °F    
Average Humidity 95    
Maximum Humidity 100    
Minimum Humidity 88    
Precipitation  
Precipitation 0.41 in - - ()
Sea Level Pressure  
Sea Level Pressure 30.17 in    
Wind  
Wind Speed 9 mph (NE)    
Max Wind Speed 15 mph    
Max Gust Speed 24 mph    
Visibility 4 miles    
Events Rain    
Averages and records for this station are not official NWS values.
T = Trace of Precipitation, MM = Missing Value Source: NWS Daily Summary

Daily Weather History Graph

Daily Weather History Graph

Search for Another Location

Airport or City:

Trip Planner

Search our weather history database for the weather conditions in past years. The results will help you decide how hot, cold, wet, or windy it might be!

Date:

Astronomy

Jan. 15, 2013 Rise Set
Actual Time 7:31 AM EST 5:30 PM EST
Civil Twilight 7:03 AM EST 5:58 PM EST
Nautical Twilight 6:31 AM EST 6:29 PM EST
Astronomical Twilight 6:00 AM EST 7:00 PM EST
Moon 9:45 AM EST (1/15) 10:07 PM EST (1/15)
Length of Visible Light 10h 55m
Length of Day
9h 59m
Waxing Crescent, 19% of the Moon is Illuminated
Jan 15
Waxing Crescent
Jan 18
First Quarter
Jan 26
Full
Feb 3
Last Quarter
Feb 10
New

Hourly Weather History & Observations

Time (EST) Temp. Windchill Dew Point Humidity Pressure Visibility Wind Dir Wind Speed Gust Speed Precip Events Conditions
12:06 AM 51.8 °F - 50.0 °F 94% 30.18 in 6.0 mi NE 9.2 mph 21.9 mph 0.03 in Rain Rain
12:12 AM 51.8 °F - 48.2 °F 88% 30.19 in 6.0 mi NNE 15.0 mph 24.2 mph 0.03 in Rain Light Rain
12:49 AM 50.0 °F - 48.2 °F 94% 30.19 in 4.0 mi NNE 12.7 mph 20.7 mph 0.08 in Rain Light Rain
12:54 AM 50.0 °F - 48.0 °F 93% 30.18 in 4.0 mi NNE 9.2 mph 20.7 mph 0.08 in Rain Light Rain
1:41 AM 48.2 °F - 46.4 °F 93% 30.19 in 4.0 mi ENE 9.2 mph - 0.01 in Rain Light Rain
1:54 AM 48.0 °F - 46.9 °F 96% 30.19 in 5.0 mi NE 8.1 mph - 0.01 in   Overcast
2:02 AM 48.2 °F - 46.4 °F 93% 30.21 in 5.0 mi NNE 9.2 mph - N/A   Overcast
2:29 AM 46.4 °F 40.7 °F 46.4 °F 100% 30.16 in 2.5 mi East 12.7 mph 19.6 mph 0.01 in Rain Light Rain
2:54 AM 46.9 °F - 46.0 °F 97% 30.17 in 10.0 mi East 12.7 mph - 0.01 in   Overcast
3:54 AM 46.0 °F 41.0 °F 44.1 °F 93% 30.15 in 10.0 mi ENE 10.4 mph - 0.01 in   Overcast
4:54 AM 45.0 °F 40.1 °F 44.1 °F 97% 30.14 in 3.0 mi NE 9.2 mph - 0.01 in Rain Light Rain
5:54 AM 45.0 °F 41.8 °F 44.1 °F 97% 30.14 in 3.0 mi NE 5.8 mph - 0.02 in Rain Light Rain
6:54 AM 45.0 °F 41.8 °F 43.0 °F 93% 30.15 in 4.0 mi NE 5.8 mph - 0.01 in Rain Light Rain
7:46 AM 44.6 °F 39.7 °F 42.8 °F 93% 30.18 in 2.5 mi NE 9.2 mph - 0.01 in Rain Light Rain
7:54 AM 44.1 °F 40.1 °F 43.0 °F 96% 30.19 in 4.0 mi NNE 6.9 mph - 0.02 in Rain Light Rain
8:36 AM 44.6 °F 39.2 °F 42.8 °F 93% 30.22 in 1.8 mi NNE 10.4 mph - 0.01 in Rain Light Rain
8:50 AM 44.6 °F 40.2 °F 42.8 °F 93% 30.22 in 3.0 mi NE 8.1 mph - 0.02 in Rain Light Rain
8:51 AM 44.1 °F 40.1 °F 42.1 °F 93% 30.22 in 3.0 mi NE 6.9 mph - 0.02 in Rain Light Rain
9:54 AM 43.0 °F 38.8 °F 42.1 °F 97% 30.23 in 3.0 mi NE 6.9 mph - 0.03 in Rain Rain
10:25 AM 42.8 °F 38.6 °F 42.8 °F 100% 30.22 in 5.0 mi NE 6.9 mph - 0.05 in Rain Light Rain
10:54 AM 43.0 °F 38.2 °F 41.0 °F 93% 30.22 in 5.0 mi NE 8.1 mph - 0.09 in Rain Light Rain
11:54 AM 42.1 °F 37.7 °F 41.0 °F 96% 30.21 in 10.0 mi NE 6.9 mph - 0.02 in Rain Light Rain
12:54 PM 42.1 °F 38.4 °F 39.9 °F 92% 30.19 in 5.0 mi ENE 5.8 mph - 0.04 in Rain Light Rain
1:54 PM 41.0 °F 35.8 °F 39.0 °F 93% 30.16 in 6.0 mi ENE 8.1 mph - 0.02 in   Overcast
2:04 PM 41.0 °F 36.4 °F 39.2 °F 93% 30.15 in 5.0 mi ENE 6.9 mph - 0.00 in Rain Light Rain
2:17 PM 41.0 °F 35.8 °F 39.2 °F 93% 30.15 in 10.0 mi ENE 8.1 mph - N/A   Overcast
2:54 PM 41.0 °F 34.3 °F 39.0 °F 93% 30.17 in 8.0 mi NE 11.5 mph - 0.00 in Rain Light Rain
3:49 PM 39.2 °F 33.0 °F 39.2 °F 100% 30.16 in 3.0 mi NE 9.2 mph - 0.01 in   Overcast
3:54 PM 39.9 °F 35.8 °F 39.0 °F 97% 30.17 in 3.0 mi NE 5.8 mph - 0.01 in   Overcast
4:33 PM 39.2 °F 33.0 °F 39.2 °F 100% 30.16 in 2.5 mi ENE 9.2 mph - 0.00 in Rain Light Rain
4:44 PM 41.0 °F 36.4 °F 39.2 °F 93% 30.16 in 3.0 mi NE 6.9 mph - 0.00 in   Overcast
4:54 PM 39.9 °F 35.1 °F 39.0 °F 97% 30.17 in 3.0 mi ENE 6.9 mph - 0.00 in   Overcast
5:54 PM 39.9 °F 35.1 °F 39.0 °F 97% 30.17 in 4.0 mi ENE 6.9 mph - 0.00 in   Overcast
6:54 PM 39.9 °F 34.5 °F 39.0 °F 97% 30.15 in 4.0 mi NE 8.1 mph - N/A   Overcast
7:54 PM 39.9 °F 35.1 °F 39.0 °F 97% 30.16 in 4.0 mi NE 6.9 mph - N/A   Overcast
8:15 PM 39.2 °F 35.9 °F 39.2 °F 100% 30.14 in 2.5 mi NE 4.6 mph - N/A   Overcast
8:54 PM 39.9 °F 35.1 °F 39.0 °F 97% 30.12 in 2.0 mi ENE 6.9 mph - N/A   Overcast
9:54 PM 39.9 °F 36.7 °F 39.0 °F 97% 30.12 in 2.0 mi NE 4.6 mph - 0.00 in Rain Light Rain
10:14 PM 39.2 °F 35.0 °F 39.2 °F 100% 30.09 in 3.0 mi ENE 5.8 mph - 0.01 in Rain Light Rain
10:54 PM 39.9 °F 35.8 °F 39.0 °F 97% 30.10 in 3.0 mi NE 5.8 mph - 0.01 in   Overcast
11:54 PM 39.9 °F 37.8 °F 39.0 °F 97% 30.09 in 2.5 mi NNE 3.5 mph - N/A   Overcast